DateTime,uGy/h
2011-03-13 00:00,0.12
2011-03-13 01:00,0.12
2011-03-13 02:00,0.11
2011-03-13 03:00,0.11
2011-03-13 04:00,0.11
2011-03-13 05:00,0.06
2011-03-13 06:00,0.06
2011-03-13 07:00,0.06
2011-03-13 08:00,0.06
2011-03-13 09:00,0.06
2011-03-13 10:00,0.06
2011-03-13 11:00,0.06
2011-03-13 12:00,0.06
2011-03-13 13:00,0.06
2011-03-13 14:00,0.06
2011-03-13 15:00,0.06
2011-03-13 16:00,0.06
2011-03-13 17:00,0.06
2011-03-13 18:00,0.06
2011-03-13 19:00,0.06
2011-03-13 20:00,0.06
2011-03-13 21:00,0.06
2011-03-13 22:00,0.06
2011-03-13 23:00,0.06
2011-03-14 00:00,0.06
2011-03-14 01:00,0.06
2011-03-14 02:00,0.06
2011-03-14 03:00,0.06
2011-03-14 04:00,0.06
2011-03-14 05:00,0.06
2011-03-14 06:00,0.06
2011-03-14 07:00,0.06
2011-03-14 08:00,0.06
2011-03-14 09:00,0.06
2011-03-14 10:00,0.06
2011-03-14 11:00,0.06
2011-03-14 12:00,0.06
2011-03-14 13:00,0.06
2011-03-14 14:00,0.06
2011-03-14 15:00,0.06
2011-03-14 16:00,0.06
2011-03-14 17:00,0.06
2011-03-14 18:00,0.06
2011-03-14 19:00,0.06
2011-03-14 20:00,0.06
2011-03-14 21:00,0.06
2011-03-14 22:00,0.06
2011-03-14 23:00,0.06
2011-03-15 00:00,0.06
2011-03-15 01:00,0.06
2011-03-15 02:00,0.06
2011-03-15 03:00,0.06
2011-03-15 04:00,0.24
2011-03-15 05:00,0.08
2011-03-15 06:00,0.08
2011-03-15 07:00,0.08
2011-03-15 08:00,0.09
2011-03-15 09:00,0.24
2011-03-15 10:00,14.71
2011-03-15 11:00,31.82
2011-03-15 12:00,13.11
2011-03-15 13:00,10.19
2011-03-15 14:00,9.8
2011-03-15 15:00,9.38
2011-03-15 16:00,8.09
2011-03-15 17:00,7.47
2011-03-15 18:00,8.53
2011-03-15 19:00,8.86
2011-03-15 20:00,8.4
2011-03-15 21:00,8.27
2011-03-15 22:00,7.99
2011-03-15 23:00,6.71
2011-03-16 00:00,6.4
2011-03-16 01:00,6.37
2011-03-16 02:00,10.29
2011-03-16 03:00,9.09
2011-03-16 04:00,8.15
2011-03-16 05:00,7.73
2011-03-16 06:00,7.36
2011-03-16 07:00,7.11
2011-03-16 08:00,6.94
2011-03-16 09:00,6.71
2011-03-16 10:00,6.46
2011-03-16 11:00,6.22
2011-03-16 12:00,6.2
2011-03-16 13:00,5.85
2011-03-16 14:00,5.82
2011-03-16 15:00,6.01
2011-03-16 16:00,6.09
2011-03-16 17:00,6.03
2011-03-16 18:00,6.03
2011-03-16 19:00,5.98
2011-03-16 20:00,5.88
2011-03-16 21:00,5.86
2011-03-16 22:00,5.8
2011-03-16 23:00,5.78
2011-03-17 00:00,5.71
2011-03-17 01:00,5.76
2011-03-17 02:00,5.71
2011-03-17 03:00,5.63
2011-03-17 04:00,5.58
2011-03-17 05:00,5.58
2011-03-17 06:00,5.54
2011-03-17 07:00,5.36
2011-03-17 08:00,5.68
2011-03-17 09:00,5.69
2011-03-17 10:00,5.68
2011-03-17 11:00,5.66
2011-03-17 12:00,5.61
2011-03-17 13:00,5.51
2011-03-17 14:00,5.51
2011-03-17 15:00,5.46
2011-03-17 16:00,5.52
2011-03-17 17:00,5.35
2011-03-17 18:00,5.22
2011-03-17 19:00,5.08
2011-03-17 20:00,5.06
2011-03-17 21:00,4.99
2011-03-17 22:00,4.9
2011-03-17 23:00,4.96
2011-03-18 00:00,4.88
2011-03-18 01:00,4.88
2011-03-18 02:00,4.85
2011-03-18 03:00,4.77
2011-03-18 04:00,4.76
2011-03-18 05:00,4.77
2011-03-18 06:00,4.69
2011-03-18 07:00,4.56
2011-03-18 08:00,4.81
2011-03-18 09:00,4.8
2011-03-18 10:00,4.85
2011-03-18 11:00,4.82
2011-03-18 12:00,4.81
2011-03-18 13:00,4.71
2011-03-18 14:00,4.66
2011-03-18 15:00,4.65
2011-03-18 16:00,4.65
2011-03-18 17:00,4.67
2011-03-18 18:00,4.66
2011-03-18 19:00,4.55
2011-03-18 20:00,4.47
2011-03-18 21:00,4.42
2011-03-18 22:00,4.35
2011-03-18 23:00,4.29
2011-03-19 00:00,4.26
2011-03-19 01:00,4.22
2011-03-19 02:00,4.21
2011-03-19 03:00,4.21
2011-03-19 04:00,4.23
2011-03-19 05:00,4.22
2011-03-19 06:00,4.24
2011-03-19 07:00,4.19
2011-03-19 08:00,4.21
2011-03-19 09:00,4.21
2011-03-19 10:00,4.13
2011-03-19 11:00,4.16
2011-03-19 12:00,4.14
2011-03-19 13:00,4.11
2011-03-19 14:00,4.05
2011-03-19 15:00,4.04
2011-03-19 16:00,4
2011-03-19 17:00,3.99
2011-03-19 18:00,4
2011-03-19 19:00,3.99
2011-03-19 20:00,3.94
2011-03-19 21:00,3.93
2011-03-19 22:00,3.89
2011-03-19 23:00,3.86
2011-03-20 00:00,3.85
2011-03-20 01:00,3.86
2011-03-20 02:00,3.82
2011-03-20 03:00,3.81
2011-03-20 04:00,3.79
2011-03-20 05:00,3.76
2011-03-20 06:00,3.74
2011-03-20 07:00,3.71
2011-03-20 08:00,3.67
2011-03-20 09:00,3.6
2011-03-20 10:00,4.14
2011-03-20 11:00,3.87
2011-03-20 12:00,3.78
2011-03-20 13:00,3.74
2011-03-20 14:00,3.69
2011-03-20 15:00,3.65
2011-03-20 16:00,3.62
2011-03-20 17:00,3.6
2011-03-20 18:00,3.58
2011-03-20 19:00,3.56
2011-03-20 20:00,3.55
2011-03-20 21:00,3.52
2011-03-20 22:00,3.52
2011-03-20 23:00,3.5
2011-03-21 00:00,3.48
2011-03-21 01:00,3.47
2011-03-21 02:00,3.45
2011-03-21 03:00,3.39
2011-03-21 04:00,3.39
2011-03-21 05:00,3.36
2011-03-21 06:00,3.35
2011-03-21 07:00,3.32
2011-03-21 08:00,2.96
2011-03-21 09:00,2.77
2011-03-21 10:00,2.73
2011-03-21 11:00,2.77
2011-03-21 12:00,2.87
2011-03-21 13:00,2.85
2011-03-21 14:00,2.76
2011-03-21 15:00,2.65
2011-03-21 16:00,2.66
2011-03-21 17:00,2.73
2011-03-21 18:00,3.9
2011-03-21 19:00,3.1
2011-03-21 20:00,5.79
2011-03-21 21:00,5
2011-03-21 22:00,5.45
2011-03-21 23:00,6.43
2011-03-22 00:00,5.07
2011-03-22 01:00,4.12
2011-03-22 02:00,3.91
2011-03-22 03:00,3.71
2011-03-22 04:00,3.62
2011-03-22 05:00,3.42
2011-03-22 06:00,3.13
2011-03-22 07:00,3.01
2011-03-22 08:00,2.93
2011-03-22 09:00,2.89
2011-03-22 10:00,2.9
2011-03-22 11:00,2.85
2011-03-22 12:00,2.89
2011-03-22 13:00,2.91
2011-03-22 14:00,2.91
2011-03-22 15:00,2.91
2011-03-22 16:00,2.89
2011-03-22 17:00,3.01
2011-03-22 18:00,3.38
2011-03-22 19:00,3.33
2011-03-22 20:00,3.05
2011-03-22 21:00,2.93
2011-03-22 22:00,2.8
2011-03-22 23:00,2.73
2011-03-23 00:00,2.69
2011-03-23 01:00,2.64
2011-03-23 02:00,2.62
2011-03-23 03:00,2.62
2011-03-23 04:00,2.62
2011-03-23 05:00,2.64
2011-03-23 06:00,2.63
2011-03-23 07:00,2.62
2011-03-23 08:00,2.6
2011-03-23 09:00,2.65
2011-03-23 10:00,2.63
2011-03-23 11:00,2.64
2011-03-23 12:00,2.62
2011-03-23 13:00,2.63
2011-03-23 14:00,2.63
2011-03-23 15:00,2.61
2011-03-23 16:00,2.62
2011-03-23 17:00,2.6
2011-03-23 18:00,2.62
2011-03-23 19:00,2.54
2011-03-23 20:00,2.5
2011-03-23 21:00,2.48
2011-03-23 22:00,2.45
2011-03-23 23:00,2.41
2011-03-24 00:00,2.43
2011-03-24 01:00,2.39
2011-03-24 02:00,2.37
2011-03-24 03:00,2.34
2011-03-24 04:00,2.37
2011-03-24 05:00,2.35
2011-03-24 06:00,2.35
2011-03-24 07:00,2.3
2011-03-24 08:00,2.41
2011-03-24 09:00,2.42
2011-03-24 10:00,2.39
2011-03-24 11:00,2.42
2011-03-24 12:00,2.4
2011-03-24 13:00,2.39
2011-03-24 14:00,2.38
2011-03-24 15:00,2.38
2011-03-24 16:00,2.37
2011-03-24 17:00,2.36
2011-03-24 18:00,2.35
2011-03-24 19:00,2.35
2011-03-24 20:00,2.32
2011-03-24 21:00,2.28
2011-03-24 22:00,2.27
2011-03-24 23:00,2.25
2011-03-25 00:00,2.21
2011-03-25 01:00,2.18
2011-03-25 02:00,2.15
2011-03-25 03:00,2.18
2011-03-25 04:00,2.15
2011-03-25 05:00,2.14
2011-03-25 06:00,2.12
2011-03-25 07:00,2.12
2011-03-25 08:00,2.19
2011-03-25 09:00,2.21
2011-03-25 10:00,2.18
2011-03-25 11:00,2.34
2011-03-25 12:00,2.3
2011-03-25 13:00,2.3
2011-03-25 14:00,2.24
2011-03-25 15:00,2.24
2011-03-25 16:00,2.22
2011-03-25 17:00,2.19
2011-03-25 18:00,2.18
2011-03-25 19:00,2.17
2011-03-25 20:00,2.17
2011-03-25 21:00,2.11
2011-03-25 22:00,2.23
2011-03-25 23:00,2.09
2011-03-26 00:00,2.07
2011-03-26 01:00,2.05
2011-03-26 02:00,2.01
2011-03-26 03:00,1.98
2011-03-26 04:00,1.93
2011-03-26 05:00,1.92
2011-03-26 06:00,1.91
2011-03-26 07:00,1.9
2011-03-26 08:00,1.91
2011-03-26 09:00,1.97
2011-03-26 10:00,1.95
2011-03-26 11:00,1.93
2011-03-26 12:00,1.94
2011-03-26 13:00,1.94
2011-03-26 14:00,1.93
2011-03-26 15:00,1.94
2011-03-26 16:00,1.95
2011-03-26 17:00,1.96
2011-03-26 18:00,1.95
2011-03-26 19:00,1.94
2011-03-26 20:00,1.91
2011-03-26 21:00,1.88
2011-03-26 22:00,1.88
2011-03-26 23:00,1.86
2011-03-27 00:00,1.83
2011-03-27 01:00,1.81
2011-03-27 02:00,1.83
2011-03-27 03:00,1.82
2011-03-27 04:00,1.81
2011-03-27 05:00,1.79
2011-03-27 06:00,1.78
2011-03-27 07:00,1.78
2011-03-27 08:00,1.84
2011-03-27 09:00,1.84
2011-03-27 10:00,1.78
2011-03-27 11:00,1.83
2011-03-27 12:00,1.84
2011-03-27 13:00,1.84
2011-03-27 14:00,1.84
2011-03-27 15:00,1.84
2011-03-27 16:00,1.84
2011-03-27 17:00,1.82
2011-03-27 18:00,1.83
2011-03-27 19:00,1.83
2011-03-27 20:00,1.78
2011-03-27 21:00,1.76
2011-03-27 22:00,1.74
2011-03-27 23:00,1.71
2011-03-28 00:00,1.69
2011-03-28 01:00,1.7
2011-03-28 02:00,1.69
2011-03-28 03:00,1.68
2011-03-28 04:00,1.67
2011-03-28 05:00,1.66
2011-03-28 06:00,1.65
2011-03-28 07:00,1.66
2011-03-28 08:00,1.72
2011-03-28 09:00,1.69
2011-03-28 10:00,1.7
2011-03-28 11:00,1.69
2011-03-28 12:00,1.72
2011-03-28 13:00,1.71
2011-03-28 14:00,1.72
2011-03-28 15:00,1.72
2011-03-28 16:00,1.71
2011-03-28 17:00,1.71
2011-03-28 18:00,1.7
2011-03-28 19:00,1.71
2011-03-28 20:00,1.69
2011-03-28 21:00,1.65
2011-03-28 22:00,1.64
2011-03-28 23:00,1.62
2011-03-29 00:00,1.59
2011-03-29 01:00,1.59
2011-03-29 02:00,1.59
2011-03-29 03:00,1.58
2011-03-29 04:00,1.57
2011-03-29 05:00,1.56
2011-03-29 06:00,1.55
2011-03-29 07:00,1.56
2011-03-29 08:00,1.62
2011-03-29 09:00,1.59
2011-03-29 10:00,1.61
2011-03-29 11:00,1.6
2011-03-29 12:00,1.6
2011-03-29 13:00,1.61
2011-03-29 14:00,1.62
2011-03-29 15:00,1.61
2011-03-29 16:00,1.61
2011-03-29 17:00,1.6
2011-03-29 18:00,1.6
2011-03-29 19:00,1.61
2011-03-29 20:00,1.59
2011-03-29 21:00,1.59
2011-03-29 22:00,1.6
2011-03-29 23:00,1.61
2011-03-30 00:00,1.57
2011-03-30 01:00,1.55
2011-03-30 02:00,1.54
2011-03-30 03:00,1.53
2011-03-30 04:00,1.52
2011-03-30 05:00,1.51
2011-03-30 06:00,1.5
2011-03-30 07:00,1.5
2011-03-30 08:00,1.54
2011-03-30 09:00,1.53
2011-03-30 10:00,1.5
2011-03-30 11:00,1.51
2011-03-30 12:00,1.49
2011-03-30 13:00,1.54
2011-03-30 14:00,1.54
2011-03-30 15:00,1.53
2011-03-30 16:00,1.52
2011-03-30 17:00,1.53
2011-03-30 18:00,1.54
2011-03-30 19:00,1.52
2011-03-30 20:00,1.48
2011-03-30 21:00,1.46
2011-03-30 22:00,1.46
2011-03-30 23:00,1.45
2011-03-31 00:00,1.46
2011-03-31 01:00,1.45
2011-03-31 02:00,1.45
2011-03-31 03:00,1.45
2011-03-31 04:00,1.45
2011-03-31 05:00,1.48
2011-03-31 06:00,1.47
2011-03-31 07:00,1.46
2011-03-31 08:00,1.45
2011-03-31 09:00,1.45
2011-03-31 10:00,1.44
2011-03-31 11:00,1.44
2011-03-31 12:00,1.44
2011-03-31 13:00,1.44
2011-03-31 14:00,1.44
2011-03-31 15:00,1.43
2011-03-31 16:00,1.42
2011-03-31 17:00,1.43
2011-03-31 18:00,1.43
2011-03-31 19:00,1.42
2011-03-31 20:00,1.43
2011-03-31 21:00,1.43
2011-03-31 22:00,1.4
2011-03-31 23:00,1.39
2011-04-01 00:00,1.39
2011-04-01 01:00,1.37
2011-04-01 02:00,1.37
2011-04-01 03:00,1.36
2011-04-01 04:00,1.35
2011-04-01 05:00,1.34
2011-04-01 06:00,1.33
2011-04-01 07:00,1.35
2011-04-01 08:00,1.38
2011-04-01 09:00,1.38
2011-04-01 10:00,1.39
2011-04-01 11:00,1.39
2011-04-01 12:00,1.35
2011-04-01 13:00,1.37
2011-04-01 14:00,1.36
2011-04-01 15:00,1.38
2011-04-01 16:00,1.38
2011-04-01 17:00,1.37
2011-04-01 18:00,1.38
2011-04-01 19:00,1.38
2011-04-01 20:00,1.37
2011-04-01 21:00,1.36
2011-04-01 22:00,1.37
2011-04-01 23:00,1.36
2011-04-02 00:00,1.37
2011-04-02 01:00,1.37
2011-04-02 02:00,1.36
2011-04-02 03:00,1.36
2011-04-02 04:00,1.34
2011-04-02 05:00,1.34
2011-04-02 06:00,1.34
2011-04-02 07:00,1.33
2011-04-02 08:00,1.34
2011-04-02 09:00,1.35
2011-04-02 10:00,1.33
2011-04-02 11:00,1.33
2011-04-02 12:00,1.32
2011-04-02 13:00,1.32
2011-04-02 14:00,1.31
2011-04-02 15:00,1.33
2011-04-02 16:00,1.33
2011-04-02 17:00,1.33
2011-04-02 18:00,1.33
2011-04-02 19:00,1.31
2011-04-02 20:00,1.33
2011-04-02 21:00,1.32
2011-04-02 22:00,1.32
2011-04-02 23:00,1.33
2011-04-03 00:00,1.32
2011-04-03 01:00,1.3
2011-04-03 02:00,1.29
2011-04-03 03:00,1.28
2011-04-03 04:00,1.28
2011-04-03 05:00,1.28
2011-04-03 06:00,1.27
2011-04-03 07:00,1.27
2011-04-03 08:00,1.29
2011-04-03 09:00,1.29
2011-04-03 10:00,1.27
2011-04-03 11:00,1.29
2011-04-03 12:00,1.29
2011-04-03 13:00,1.29
2011-04-03 14:00,1.28
2011-04-03 15:00,1.28
2011-04-03 16:00,1.29
2011-04-03 17:00,1.28
2011-04-03 18:00,1.28
2011-04-03 19:00,1.28
2011-04-03 20:00,1.3
2011-04-03 21:00,1.27
2011-04-03 22:00,1.26
2011-04-03 23:00,1.25
2011-04-04 00:00,1.25
2011-04-04 01:00,1.25
2011-04-04 02:00,1.24
2011-04-04 03:00,1.24
2011-04-04 04:00,1.23
2011-04-04 05:00,1.22
2011-04-04 06:00,1.21
2011-04-04 07:00,1.22
2011-04-04 08:00,1.24
2011-04-04 09:00,1.21
2011-04-04 10:00,1.21
2011-04-04 11:00,1.23
2011-04-04 12:00,1.25
2011-04-04 13:00,1.25
2011-04-04 14:00,1.25
2011-04-04 15:00,1.25
2011-04-04 16:00,1.25
2011-04-04 17:00,1.25
2011-04-04 18:00,1.24
2011-04-04 19:00,1.24
2011-04-04 20:00,1.23
2011-04-04 21:00,1.21
2011-04-04 22:00,1.2
2011-04-04 23:00,1.19
2011-04-05 00:00,1.17
2011-04-05 01:00,1.16
2011-04-05 02:00,1.17
2011-04-05 03:00,1.16
2011-04-05 04:00,1.15
2011-04-05 05:00,1.14
2011-04-05 06:00,1.14
2011-04-05 07:00,1.17
2011-04-05 08:00,1.21
2011-04-05 09:00,1.19
2011-04-05 10:00,1.19
2011-04-05 11:00,1.19
2011-04-05 12:00,1.18
2011-04-05 13:00,1.2
2011-04-05 14:00,1.21
2011-04-05 15:00,1.2
2011-04-05 16:00,1.21
2011-04-05 17:00,1.21
2011-04-05 18:00,1.21
2011-04-05 19:00,1.21
2011-04-05 20:00,1.21
2011-04-05 21:00,1.21
2011-04-05 22:00,1.2
2011-04-05 23:00,1.2
2011-04-06 00:00,1.18
2011-04-06 01:00,1.16
2011-04-06 02:00,1.16
2011-04-06 03:00,1.16
2011-04-06 04:00,1.14
2011-04-06 05:00,1.13
2011-04-06 06:00,1.12
2011-04-06 07:00,1.15
2011-04-06 08:00,1.16
2011-04-06 09:00,1.19
2011-04-06 10:00,1.18
2011-04-06 11:00,1.17
2011-04-06 12:00,1.17
2011-04-06 13:00,1.15
2011-04-06 14:00,1.14
2011-04-06 15:00,1.14
2011-04-06 16:00,1.16
2011-04-06 17:00,1.15
2011-04-06 18:00,1.18
2011-04-06 19:00,1.16
2011-04-06 20:00,1.18
2011-04-06 21:00,1.17
2011-04-06 22:00,1.17
2011-04-06 23:00,1.17
2011-04-07 00:00,1.17
2011-04-07 01:00,1.16
2011-04-07 02:00,1.15
2011-04-07 03:00,1.14
2011-04-07 04:00,1.14
2011-04-07 05:00,1.13
2011-04-07 06:00,1.13
2011-04-07 07:00,1.15
2011-04-07 08:00,1.14
2011-04-07 09:00,1.15
2011-04-07 10:00,1.12
2011-04-07 11:00,1.14
2011-04-07 12:00,1.14
2011-04-07 13:00,1.13
2011-04-07 14:00,1.14
2011-04-07 15:00,1.13
2011-04-07 16:00,1.12
2011-04-07 17:00,1.11
2011-04-07 18:00,1.13
2011-04-07 19:00,1.15
2011-04-07 20:00,1.14
2011-04-07 21:00,1.14
2011-04-07 22:00,1.15
2011-04-07 23:00,1.14
2011-04-08 00:00,1.14
2011-04-08 01:00,1.13
2011-04-08 02:00,1.14
2011-04-08 03:00,1.14
2011-04-08 04:00,1.14
2011-04-08 05:00,1.13
2011-04-08 06:00,1.13
2011-04-08 07:00,1.13
2011-04-08 08:00,1.11
2011-04-08 09:00,1.1
2011-04-08 10:00,1.13
2011-04-08 11:00,1.12
2011-04-08 12:00,1.12
2011-04-08 13:00,1.12
2011-04-08 14:00,1.11
2011-04-08 15:00,1.1
2011-04-08 16:00,1.09
2011-04-08 17:00,1.08
2011-04-08 18:00,1.09
2011-04-08 19:00,1.1
2011-04-08 20:00,1.12
2011-04-08 21:00,1.12
2011-04-08 22:00,1.12
2011-04-08 23:00,1.11
2011-04-09 00:00,1.11
2011-04-09 01:00,1.11
2011-04-09 02:00,1.12
2011-04-09 03:00,1.12
2011-04-09 04:00,1.12
2011-04-09 05:00,1.11
2011-04-09 06:00,1.11
2011-04-09 07:00,1.1
2011-04-09 08:00,1.1
2011-04-09 09:00,1.09
2011-04-09 10:00,1.09
2011-04-09 11:00,1.09
2011-04-09 12:00,1.08
2011-04-09 13:00,1.08
2011-04-09 14:00,1.09
2011-04-09 15:00,1.09
2011-04-09 16:00,1.08
2011-04-09 17:00,1.08
2011-04-09 18:00,1.08
2011-04-09 19:00,1.07
2011-04-09 20:00,1.08
2011-04-09 21:00,1.07
2011-04-09 22:00,1.09
2011-04-09 23:00,1.08
2011-04-10 00:00,1.07
2011-04-10 01:00,1.08
2011-04-10 02:00,1.07
2011-04-10 03:00,1.08
2011-04-10 04:00,1.07
2011-04-10 05:00,1.07
2011-04-10 06:00,1.09
2011-04-10 07:00,1.05
2011-04-10 08:00,1.04
2011-04-10 09:00,1.07
2011-04-10 10:00,1.07
2011-04-10 11:00,1.06
2011-04-10 12:00,1.05
2011-04-10 13:00,1.04
2011-04-10 14:00,1.04
2011-04-10 15:00,1.05
2011-04-10 16:00,1.05
2011-04-10 17:00,1.06
2011-04-10 18:00,1.06
2011-04-10 19:00,1.06
2011-04-10 20:00,1.08
2011-04-10 21:00,1.06
2011-04-10 22:00,1.07
2011-04-10 23:00,1.06
2011-04-11 00:00,1.06
2011-04-11 01:00,1.06
2011-04-11 02:00,1.07
2011-04-11 03:00,1.06
2011-04-11 04:00,1.06
2011-04-11 05:00,1.07
2011-04-11 06:00,1.06
2011-04-11 07:00,1.05
2011-04-11 08:00,1.05
2011-04-11 09:00,1.03
2011-04-11 10:00,1.04
2011-04-11 11:00,1.04
2011-04-11 12:00,1.03
2011-04-11 13:00,1.03
2011-04-11 14:00,1.04
2011-04-11 15:00,1.05
2011-04-11 16:00,1.05
2011-04-11 17:00,1.05
2011-04-11 18:00,1.04
2011-04-11 19:00,1.04
2011-04-11 20:00,1.04
2011-04-11 21:00,1.03
2011-04-11 22:00,1.04
2011-04-11 23:00,
2011-04-12 00:00,
2011-04-12 01:00,
2011-04-12 02:00,
2011-04-12 03:00,
2011-04-12 04:00,
2011-04-12 05:00,
2011-04-12 06:00,
2011-04-12 07:00,
2011-04-12 08:00,
2011-04-12 09:00,
2011-04-12 10:00,
2011-04-12 11:00,
2011-04-12 12:00,
2011-04-12 13:00,
2011-04-12 14:00,
2011-04-12 15:00,
2011-04-12 16:00,
2011-04-12 17:00,
2011-04-12 18:00,
2011-04-12 19:00,
2011-04-12 20:00,
2011-04-12 21:00,
2011-04-12 22:00,1.01
2011-04-12 23:00,1.01
2011-04-13 00:00,1
2011-04-13 01:00,1
2011-04-13 02:00,1
2011-04-13 03:00,1
2011-04-13 04:00,0.99
2011-04-13 05:00,1
2011-04-13 06:00,1
2011-04-13 07:00,1
2011-04-13 08:00,0.99
2011-04-13 09:00,1.02
2011-04-13 10:00,1.01
2011-04-13 11:00,1.01
2011-04-13 12:00,1
2011-04-13 13:00,0.99
2011-04-13 14:00,0.99
2011-04-13 15:00,0.98
2011-04-13 16:00,0.98
2011-04-13 17:00,1
2011-04-13 18:00,1.01
2011-04-13 19:00,1.01
2011-04-13 20:00,1.02
2011-04-13 21:00,1.02
2011-04-13 22:00,1.02
2011-04-13 23:00,1.01
2011-04-14 00:00,1.02
2011-04-14 01:00,1.01
2011-04-14 02:00,1.01
2011-04-14 03:00,1.01
2011-04-14 04:00,1.01
2011-04-14 05:00,1.01
2011-04-14 06:00,1.01
2011-04-14 07:00,0.98
2011-04-14 08:00,0.99
2011-04-14 09:00,1.01
2011-04-14 10:00,1
2011-04-14 11:00,0.99
2011-04-14 12:00,0.99
2011-04-14 13:00,0.99
2011-04-14 14:00,0.99
2011-04-14 15:00,0.99
2011-04-14 16:00,0.98
2011-04-14 17:00,0.98
2011-04-14 18:00,0.97
2011-04-14 19:00,1
2011-04-14 20:00,1
2011-04-14 21:00,1
2011-04-14 22:00,1.01
2011-04-14 23:00,1
2011-04-15 00:00,1
2011-04-15 01:00,1
2011-04-15 02:00,1
2011-04-15 03:00,1
2011-04-15 04:00,1
2011-04-15 05:00,0.99
2011-04-15 06:00,0.99
2011-04-15 07:00,0.98
2011-04-15 08:00,0.96
2011-04-15 09:00,1
2011-04-15 10:00,0.99
2011-04-15 11:00,0.98
2011-04-15 12:00,0.98
2011-04-15 13:00,0.98
2011-04-15 14:00,0.98
2011-04-15 15:00,0.98
2011-04-15 16:00,0.98
2011-04-15 17:00,0.97
2011-04-15 18:00,0.96
2011-04-15 19:00,0.96
2011-04-15 20:00,0.98
2011-04-15 21:00,0.98
2011-04-15 22:00,0.99
2011-04-15 23:00,0.99
2011-04-16 00:00,0.98
2011-04-16 01:00,0.99
2011-04-16 02:00,0.99
2011-04-16 03:00,0.99
2011-04-16 04:00,0.99
2011-04-16 05:00,0.98
2011-04-16 06:00,0.98
2011-04-16 07:00,0.97
2011-04-16 08:00,0.97
2011-04-16 09:00,0.98
2011-04-16 10:00,0.97
2011-04-16 11:00,0.97
2011-04-16 12:00,0.97
2011-04-16 13:00,0.97
2011-04-16 14:00,0.96
2011-04-16 15:00,1.07
2011-04-16 16:00,0.92
2011-04-16 17:00,0.93
2011-04-16 18:00,0.93
2011-04-16 19:00,0.94
2011-04-16 20:00,0.93
2011-04-16 21:00,0.93
2011-04-16 22:00,0.93
2011-04-16 23:00,0.94
2011-04-17 00:00,0.93
2011-04-17 01:00,0.94
2011-04-17 02:00,0.93
2011-04-17 03:00,0.94
2011-04-17 04:00,0.93
2011-04-17 05:00,0.93
2011-04-17 06:00,0.92
2011-04-17 07:00,0.91
2011-04-17 08:00,0.9
2011-04-17 09:00,0.92
2011-04-17 10:00,0.93
2011-04-17 11:00,0.93
2011-04-17 12:00,0.91
2011-04-17 13:00,0.9
2011-04-17 14:00,0.9
2011-04-17 15:00,0.92
2011-04-17 16:00,0.92
2011-04-17 17:00,0.93
2011-04-17 18:00,0.93
2011-04-17 19:00,0.93
2011-04-17 20:00,0.93
2011-04-17 21:00,0.93
2011-04-17 22:00,0.93
2011-04-17 23:00,0.93
2011-04-18 00:00,0.93
2011-04-18 01:00,0.94
2011-04-18 02:00,0.93
2011-04-18 03:00,0.94
2011-04-18 04:00,0.93
2011-04-18 05:00,0.92
2011-04-18 06:00,0.92
2011-04-18 07:00,0.93
2011-04-18 08:00,0.92
2011-04-18 09:00,0.92
2011-04-18 10:00,0.92
2011-04-18 11:00,0.92
2011-04-18 12:00,0.92
2011-04-18 13:00,0.9
2011-04-18 14:00,0.91
2011-04-18 15:00,0.91
2011-04-18 16:00,0.92
2011-04-18 17:00,0.92
2011-04-18 18:00,0.92
2011-04-18 19:00,0.93
2011-04-18 20:00,0.92
2011-04-18 21:00,0.93
2011-04-18 22:00,0.92
2011-04-18 23:00,0.93
2011-04-19 00:00,0.92
2011-04-19 01:00,0.92
2011-04-19 02:00,0.92
2011-04-19 03:00,0.92
2011-04-19 04:00,0.92
2011-04-19 05:00,0.91
2011-04-19 06:00,0.92
2011-04-19 07:00,0.92
2011-04-19 08:00,0.92
2011-04-19 09:00,0.92
2011-04-19 10:00,0.92
2011-04-19 11:00,0.94
2011-04-19 12:00,0.93
2011-04-19 13:00,0.92
2011-04-19 14:00,0.93
2011-04-19 15:00,0.92
2011-04-19 16:00,0.92
2011-04-19 17:00,0.91
2011-04-19 18:00,0.91
2011-04-19 19:00,0.9
2011-04-19 20:00,0.9
2011-04-19 21:00,0.89
2011-04-19 22:00,0.88
2011-04-19 23:00,0.89
2011-04-20 00:00,0.89
2011-04-20 01:00,0.89
2011-04-20 02:00,0.89
2011-04-20 03:00,0.88
2011-04-20 04:00,0.88
2011-04-20 05:00,0.89
2011-04-20 06:00,0.88
2011-04-20 07:00,0.89
2011-04-20 08:00,0.9
2011-04-20 09:00,0.91
2011-04-20 10:00,0.9
2011-04-20 11:00,0.9
2011-04-20 12:00,0.91
2011-04-20 13:00,0.91
2011-04-20 14:00,0.91
2011-04-20 15:00,0.91
2011-04-20 16:00,0.91
2011-04-20 17:00,0.91
2011-04-20 18:00,0.91
2011-04-20 19:00,0.92
2011-04-20 20:00,0.91
2011-04-20 21:00,0.9
2011-04-20 22:00,0.9
2011-04-20 23:00,0.91
2011-04-21 00:00,0.92
2011-04-21 01:00,0.91
2011-04-21 02:00,0.9
2011-04-21 03:00,0.9
2011-04-21 04:00,0.9
2011-04-21 05:00,0.9
2011-04-21 06:00,0.9
2011-04-21 07:00,0.89
2011-04-21 08:00,0.88
2011-04-21 09:00,0.9
2011-04-21 10:00,0.9
2011-04-21 11:00,0.9
2011-04-21 12:00,0.89
2011-04-21 13:00,0.89
2011-04-21 14:00,0.89
2011-04-21 15:00,0.91
2011-04-21 16:00,0.91
2011-04-21 17:00,0.9
2011-04-21 18:00,0.9
2011-04-21 19:00,0.9
2011-04-21 20:00,0.91
2011-04-21 21:00,0.9
2011-04-21 22:00,0.91
2011-04-21 23:00,0.91
2011-04-22 00:00,0.91
2011-04-22 01:00,0.9
2011-04-22 02:00,0.91
2011-04-22 03:00,0.9
2011-04-22 04:00,0.9
2011-04-22 05:00,0.9
2011-04-22 06:00,0.9
2011-04-22 07:00,0.91
2011-04-22 08:00,0.91
2011-04-22 09:00,0.89
2011-04-22 10:00,0.89
2011-04-22 11:00,0.9
2011-04-22 12:00,0.9
2011-04-22 13:00,0.9
2011-04-22 14:00,0.9
2011-04-22 15:00,0.89
2011-04-22 16:00,0.9
2011-04-22 17:00,0.9
2011-04-22 18:00,0.89
2011-04-22 19:00,0.89
2011-04-22 20:00,0.9
2011-04-22 21:00,0.9
2011-04-22 22:00,0.9
2011-04-22 23:00,0.9
2011-04-23 00:00,0.9
2011-04-23 01:00,0.89
2011-04-23 02:00,0.9
2011-04-23 03:00,0.9
2011-04-23 04:00,0.9
2011-04-23 05:00,0.9
2011-04-23 06:00,0.9
2011-04-23 07:00,0.88
2011-04-23 08:00,0.89
2011-04-23 09:00,0.88
2011-04-23 10:00,0.88
2011-04-23 11:00,0.89
2011-04-23 12:00,0.87
2011-04-23 13:00,0.88
2011-04-23 14:00,0.88
2011-04-23 15:00,0.88
2011-04-23 16:00,0.88
2011-04-23 17:00,0.88
2011-04-23 18:00,0.87
2011-04-23 19:00,0.87
2011-04-23 20:00,0.87
2011-04-23 21:00,0.87
2011-04-23 22:00,0.87
2011-04-23 23:00,0.87
2011-04-24 00:00,0.86
2011-04-24 01:00,0.86
2011-04-24 02:00,0.88
2011-04-24 03:00,0.87
2011-04-24 04:00,0.87
2011-04-24 05:00,0.86
2011-04-24 06:00,0.87
2011-04-24 07:00,0.85
2011-04-24 08:00,0.84
2011-04-24 09:00,0.87
2011-04-24 10:00,0.87
2011-04-24 11:00,0.86
2011-04-24 12:00,0.86
2011-04-24 13:00,0.85
2011-04-24 14:00,0.84
2011-04-24 15:00,0.84
2011-04-24 16:00,0.84
2011-04-24 17:00,0.86
2011-04-24 18:00,0.87
2011-04-24 19:00,0.87
2011-04-24 20:00,0.87
2011-04-24 21:00,0.87
2011-04-24 22:00,0.87
2011-04-24 23:00,0.87
2011-04-25 00:00,0.86
2011-04-25 01:00,0.87
2011-04-25 02:00,0.87
2011-04-25 03:00,0.86
2011-04-25 04:00,0.87
2011-04-25 05:00,0.86
2011-04-25 06:00,0.85
2011-04-25 07:00,0.85
2011-04-25 08:00,0.85
2011-04-25 09:00,0.86
2011-04-25 10:00,0.86
2011-04-25 11:00,0.86
2011-04-25 12:00,0.85
2011-04-25 13:00,0.85
2011-04-25 14:00,0.86
2011-04-25 15:00,0.86
2011-04-25 16:00,0.86
2011-04-25 17:00,0.86
2011-04-25 18:00,0.86
2011-04-25 19:00,0.86
2011-04-25 20:00,0.86